Location: Winthrop
(48.4780°N, 120.1850°W)
Time: 04:16:27
(UTC-07:00)

A-11 Canister half - Visible Passes

Search period start: 01 June 2023 00:00
Search period end: 11 June 2023 00:00
Orbit: 1513 x 1686 km, 47.2° (Epoch: 31 May)

Date Brightness Start Highest point End Pass type
(mag) Time Alt. Az. Time Alt. Az. Time Alt. Az.
01 Jun 10.2 02:17:42 16° SSE 02:22:26 23° SE 02:29:17 10° E visible
01 Jun 9.3 04:16:32 10° SW 04:25:54 57° SSE 04:34:58 10° ENE visible
02 Jun 10.3 01:55:40 17° SSE 01:59:36 21° SE 02:06:11 10° E visible
02 Jun 9.3 03:53:50 11° SW 04:03:00 55° SSE 04:12:02 10° ENE visible
03 Jun 10.3 01:33:35 17° SSE 01:36:45 20° SE 01:43:04 10° E visible
03 Jun 9.3 03:31:45 14° SW 03:40:05 53° SSE 03:49:05 10° ENE visible
04 Jun 10.3 01:11:26 17° SSE 01:13:55 19° SE 01:19:55 10° E visible
04 Jun 9.3 03:09:36 16° SW 03:17:10 51° SSE 03:26:09 10° ENE visible
05 Jun 10.3 00:49:14 16° SE 00:51:05 17° SE 00:56:43 10° E visible
05 Jun 9.4 02:47:23 19° SSW 02:54:16 49° SSE 03:03:13 10° ENE visible
06 Jun 10.3 00:26:58 16° SE 00:28:15 16° SE 00:33:29 10° E visible
06 Jun 9.4 02:25:06 21° SSW 02:31:22 47° SE 02:40:15 10° ENE visible
07 Jun 10.4 00:04:35 15° SE 00:05:25 15° SE 00:10:11 10° E visible
07 Jun 9.4 02:02:43 23° SSW 02:08:28 45° SE 02:17:18 10° ENE visible
07 Jun 9.1 04:03:01 10° WSW 04:12:45 78° SSE 04:22:09 10° E visible
07 Jun 10.4 23:42:07 14° SE 23:42:35 14° SE 23:46:47 10° E visible
08 Jun 9.4 01:40:15 25° SSW 01:45:34 43° SE 01:54:21 10° ENE visible
08 Jun 9.1 03:40:03 10° WSW 03:49:49 77° SSE 03:59:13 10° E visible
08 Jun 10.5 23:19:32 12° SE 23:19:46 12° ESE 23:23:15 10° ESE visible
09 Jun 9.4 01:17:39 25° SSW 01:22:40 41° SE 01:31:23 10° ENE visible
09 Jun 9.0 03:17:05 10° WSW 03:26:52 76° SSE 03:36:17 10° E visible
09 Jun 10.5 22:56:47 11° ESE 22:56:57 11° ESE 22:59:27 10° ESE visible
10 Jun 9.5 00:54:52 25° S 00:59:46 39° SE 01:08:25 10° ENE visible
10 Jun 9.0 02:54:07 10° WSW 03:03:54 74° SSE 03:13:21 10° E visible
10 Jun 10.5 22:33:51 10° ESE 22:34:08 10° ESE 22:34:25 10° ESE visible
